Temp
18 18 19 19 20 19 18 19 21 21 21 21 22 20 19 18 18 18 18 18 17 17 17 17 16 16 16 16 15 15 16 16 16 16 16 16 15 15 15 15 15 16 15
19 19 19 19 19 20 20 20 21 21 21 21 21 19 18 18 18 17 17 17 17 17 17 16 16 16 15 15 15 15 15 15 15 15 15 16 15 16 15 15 15 15 15
18 19 20 19 19 20 20 18 21 21 21 21 20 19 18 18 18 17 17 17 17 17 16 16 16 15 15 14 14 14 15 15 15 15 15 15 15 15 15 15 15 15 14
19 18 18 19 20 21 21 20 19 19 19 20 19 19 18 17 17 17 16 16 16 16 16 16 16 15 14 14 14 13 13 14 14 14 14 14 15 15 15 14 14 14 13
18 18 17 18 19 20 21 20 18 17 18 18 19 20 18 17 17 16 16 16 16 17 17 16 15 15 15 16 14 13 14 14 14 14 14 14 14 14 14 14 13 13 13
17 17 17 18 18 18 20 20 20 19 19 19 19 19 18 17 16 16 16 16 16 16 16 15 15 16 16 16 15 14 14 13 13 13 13 13 13 13 13 13 13 12 12
17 17 16 18 18 18 17 18 18 18 18 18 18 17 17 16 16 16 16 16 16 16 16 16 16 16 16 16 16 15 14 13 13 13 13 13 13 13 13 12 12 12 12
19 20 16 17 18 17 18 17 18 18 17 17 18 18 17 16 16 16 16 16 16 17 17 17 16 16 16 16 15 14 14 13 13 13 13 13 12 12 12 12 11 11 11
17 17 16 17 16 17 17 18 17 17 18 17 17 17 17 17 16 15 15 16 17 17 17 16 16 16 16 16 16 15 14 14 13 12 12 12 12 12 12 11 11 11 11
16 18 18 17 17 16 17 16 18 18 18 17 17 17 18 16 16 15 16 16 16 17 17 16 16 16 16 15 15 15 14 14 13 12 12 12 12 12 12 11 11 11 10
15 15 17 16 15 15 15 16 16 16 17 17 16 17 17 16 16 16 16 17 16 16 17 16 16 16 15 15 15 15 14 13 13 12 12 12 12 12 11 11 11 10 10
14 15 15 14 14 14 14 15 15 15 16 16 16 16 17 17 17 16 16 16 16 17 17 17 16 15 16 15 15 15 14 14 13 12 12 12 12 12 11 11 11 10 10
14 15 14 15 14 14 14 14 14 14 14 16 15 15 17 17 16 16 15 16 16 17 17 17 17 16 16 16 15 14 14 13 13 12 12 12 12 12 11 11 11 10 10
14 14 14 14 14 13 13 16 14 14 14 15 16 16 16 16 16 16 16 16 17 17 16 17 16 16 16 15 15 14 14 13 13 12 12 11 11 11 11 11 11 10 10
14 14 13 13 12 13 14 13 14 14 14 15 16 16 16 17 16 16 16 16 16 16 17 16 16 16 16 15 15 15 14 14 13 12 12 11 11 11 11 11 11 10 10
13 13 13 13 12 12 14 13 13 14 14 15 18 17 17 17 16 16 16 16 16 16 17 16 16 16 16 15 15 14 14 14 13 12 12 11 11 11 11 11 11 10 10
12 13 13 12 12 12 12 13 13 13 14 16 17 18 17 17 17 17 16 16 16 17 16 16 16 16 15 15 15 15 14 14 13 13 12 12 11 11 11 11 11 11 10
12 12 12 12 12 12 11 11 12 13 14 16 17 17 17 17 17 17 16 16 16 16 15 16 16 15 15 15 15 14 14 14 14 13 13 12 12 11 11 11 11 11 11
12 12 12 12 12 12 12 12 13 13 15 16 17 17 17 17 17 16 16 16 16 16 15 15 15 16 15 15 15 14 14 14 14 13 13 13 12 12 12 12 11 11 11
12 12 12 12 12 12 12 12 13 13 15 15 16 16 17 17 17 16 16 16 15 15 15 15 15 15 15 15 14 14 14 14 13 13 13 13 13 13 12 11 11 11 11
11 11 12 11 11 11 12 13 13 13 15 16 16 17 17 16 16 16 16 16 15 16 15 15 15 15 15 15 14 13 13 13 14 14 13 13 13 13 12 12 12 12 11
11 11 11 11 11 11 12 12 13 14 15 15 15 15 16 16 16 16 16 15 16 15 15 15 15 14 14 14 14 12 10 12 13 13 13 13 13 13 12 12 12 12 11
11 11 11 11 11 12 12 13 13 14 14 14 14 16 15 15 16 16 15 16 16 16 15 15 15 15 15 14 14 14 8 9 10 12 13 13 13 12 12 12 11 11 11
11 11 11 11 11 12 13 13 13 14 14 14 14 15 14 15 15 16 16 16 16 15 16 16 16 15 15 14 12 13 13 12 10 10 11 11 12 11 11 11 11 11 11
12 11 11 11 11 12 13 12 13 14 15 15 15 15 15 15 16 16 16 16 16 16 15 15 15 15 15 14 14 12 11 10 11 9 9 9 9 10 10 11 11 11 10
11 11 11 11 11 11 11 12 13 14 14 15 15 15 16 16 16 17 17 16 15 16 15 15 15 15 14 14 14 13 13 11 9 9 7 8 9 9 10 10 10 10 10
Height
764 765 767 767 770 770 773 776 773 774 778 781 774 793 799 801 807 810 811 813 815 819 820 825 826 826 828 832 832 834 833 836 837 840 842 842 843 846 846 846 847 847 847
757 762 762 769 769 769 771 775 773 772 776 779 783 793 802 803 807 812 813 813 817 819 821 825 827 828 831 831 831 835 836 836 839 841 842 844 845 849 849 849 851 851 852
759 756 759 764 768 769 772 775 773 773 776 779 784 793 803 806 808 815 816 816 819 820 823 825 830 830 833 833 834 836 837 840 839 842 843 845 848 850 851 852 853 854 856
758 759 758 757 762 768 773 773 775 776 781 780 785 794 800 808 811 816 819 820 822 824 828 829 834 835 836 834 835 838 838 842 843 844 844 847 850 852 853 854 855 858 858
758 760 762 761 759 764 770 771 774 779 782 786 784 791 800 809 815 820 820 823 823 824 829 831 835 838 838 838 839 840 842 845 846 847 847 849 852 854 856 856 858 860 862
756 760 761 762 764 767 769 768 772 778 781 785 788 792 799 810 816 823 824 825 826 828 828 831 836 838 841 842 842 843 846 848 848 848 850 852 854 856 858 859 860 862 864
755 756 758 760 760 768 772 772 771 773 781 785 786 793 802 809 817 825 825 827 827 829 830 831 835 840 844 845 845 847 849 850 850 851 855 855 858 858 859 861 862 863 865
750 753 758 761 765 768 771 774 775 772 782 789 779 790 801 808 818 825 826 827 829 831 830 833 837 842 844 846 848 851 852 852 852 854 857 858 859 861 862 864 864 865 867
750 752 758 759 764 767 773 775 776 773 777 788 789 788 799 808 819 826 828 830 831 831 833 836 839 843 846 848 851 853 854 854 854 857 859 860 862 862 864 866 866 868 869
750 750 754 759 760 762 769 772 775 777 778 788 790 792 793 808 819 824 831 834 834 834 836 839 841 844 849 852 855 855 856 857 859 860 861 863 864 866 867 867 868 870 871
751 753 751 755 757 762 766 766 773 780 784 789 797 793 797 809 819 826 831 834 835 837 839 842 841 844 850 854 858 858 860 861 861 862 863 866 867 869 870 871 871 872 874
751 754 754 756 757 758 759 765 764 777 785 792 798 797 796 810 820 829 832 834 837 839 842 844 844 846 848 855 859 860 862 864 863 864 866 868 871 871 872 873 875 875 876
751 752 754 754 758 758 755 758 768 775 786 791 797 798 801 812 821 830 833 836 838 841 844 844 846 849 849 854 858 862 864 865 866 867 869 871 873 874 875 876 877 878 878
752 751 755 754 756 756 748 745 760 768 783 789 795 798 804 810 821 829 833 838 838 842 845 845 848 851 852 856 860 862 865 867 868 870 871 873 876 877 877 878 878 879 880
752 752 754 755 758 757 752 746 756 768 781 791 796 803 808 812 822 829 832 838 841 844 846 849 850 852 854 857 861 862 865 867 868 870 871 874 877 879 879 880 880 880 881
752 753 754 756 759 760 758 758 762 774 782 796 801 804 811 814 824 828 832 838 842 845 847 850 848 851 855 858 860 863 867 867 869 871 872 872 876 878 879 881 881 881 881
753 754 755 759 763 766 767 771 775 782 789 795 801 807 812 819 825 827 834 838 842 844 850 849 848 851 855 859 861 863 866 868 868 869 871 871 874 877 878 879 880 881 883
755 756 758 761 765 769 771 775 780 785 791 797 803 810 813 821 826 826 835 837 844 847 850 849 847 852 855 857 860 863 866 869 869 870 870 871 873 875 877 876 877 879 879
757 757 760 762 766 769 774 778 782 787 792 796 802 809 816 820 825 830 835 837 844 846 850 848 849 852 854 856 859 862 864 866 867 869 868 869 871 873 874 875 876 878 879
758 760 761 764 768 773 777 782 786 791 795 800 806 812 815 821 826 830 835 838 842 844 848 849 849 852 853 854 857 861 863 864 865 866 866 866 868 870 871 874 874 875 877
758 761 763 765 769 773 779 783 789 792 796 802 807 813 818 823 827 832 835 838 839 841 846 848 848 850 852 855 856 860 861 861 862 861 863 863 864 867 868 870 872 873 874
758 762 764 768 771 774 778 783 789 794 798 803 808 813 818 823 826 830 832 834 837 839 843 846 846 848 850 851 854 858 859 859 857 857 858 859 861 863 864 866 868 869 870
757 761 764 768 771 774 779 785 790 795 799 803 807 810 817 821 824 826 829 831 832 835 839 841 844 844 845 848 851 853 861 858 853 851 852 854 855 858 861 862 863 865 867
755 762 765 766 771 775 778 783 789 790 794 799 804 811 815 817 820 822 825 826 828 832 834 835 838 840 842 844 847 848 849 849 849 851 849 849 849 851 855 856 858 860 862
756 760 762 765 770 773 779 782 785 791 793 798 803 809 810 813 815 819 819 821 824 828 829 832 834 835 838 839 840 842 845 845 845 847 847 848 849 847 851 852 854 854 855
751 755 757 763 767 773 774 777 781 786 790 795 797 801 804 806 808 810 813 817 820 822 824 826 829 831 832 832 833 835 837 837 838 842 844 843 843 846 847 848 849 850 850
Wind_Speed
10 18 22 25 28 28 26 37 43 44 43 42 44 38 38 36 34 33 34 34 34 33 31 29 29 28 28 27 28 28 30 28 27 26 25 25 25 24 24 26 26 24 25
17 20 24 24 28 32 32 39 42 43 42 42 42 39 35 35 34 34 34 35 35 34 32 30 29 28 27 27 28 28 30 31 29 28 27 26 26 24 25 27 25 24 24
17 25 28 27 27 32 33 36 41 42 45 44 44 40 34 34 34 34 35 36 36 34 32 32 29 29 27 26 26 25 26 27 30 29 29 29 26 26 28 28 26 26 25
18 24 29 33 31 31 38 38 40 43 43 45 44 39 35 33 34 34 34 35 35 33 29 29 25 23 25 26 26 25 25 26 29 30 31 27 26 24 24 25 26 24 24
21 26 24 28 34 36 38 37 39 38 41 41 42 39 35 34 34 33 35 35 35 33 28 25 23 25 25 25 26 26 27 28 29 29 30 29 27 24 24 24 23 23 23
19 19 25 29 31 34 39 41 42 41 41 40 38 37 38 36 33 32 35 35 33 30 28 26 27 28 26 26 27 28 29 29 30 31 30 28 27 24 24 24 25 24 24
21 14 12 26 31 33 36 38 43 43 41 43 40 39 39 38 33 33 35 34 32 30 28 28 30 29 27 26 28 28 28 28 30 31 29 28 26 25 25 25 25 25 24
20 17 18 17 29 30 32 39 41 43 42 42 45 43 43 38 35 33 35 34 32 29 27 29 31 29 28 28 27 27 27 28 29 30 28 27 25 25 25 25 26 25 25
16 14 13 15 24 19 23 29 37 44 45 40 43 47 44 41 35 33 34 34 31 29 28 30 32 30 28 27 26 25 25 25 27 28 28 26 24 24 24 24 25 24 24
15 17 14 13 16 18 26 24 31 35 41 42 44 46 46 43 37 35 34 32 30 30 30 32 33 29 26 25 24 23 22 23 25 27 27 25 23 23 23 23 24 23 23
17 22 13 17 16 19 24 27 27 31 34 39 41 46 46 42 37 36 36 33 31 30 30 31 31 28 26 24 21 19 20 22 23 25 25 22 21 21 21 21 22 21 21
17 20 15 16 14 17 21 32 40 38 36 36 37 42 47 41 38 36 35 34 31 29 29 29 29 29 28 23 20 20 19 19 20 22 23 21 19 19 20 19 19 19 18
14 19 18 17 13 6 16 33 32 45 43 36 35 40 45 41 38 34 34 35 32 28 29 29 27 26 24 21 20 18 17 17 18 20 20 19 17 17 17 17 16 16 16
16 17 21 16 13 9 14 45 40 45 41 36 36 41 44 43 37 35 34 33 32 27 27 24 25 23 21 19 18 17 16 15 16 17 18 17 16 16 15 15 15 14 13
12 17 20 20 17 21 27 33 44 40 39 35 37 41 42 41 39 35 33 32 31 27 26 25 23 21 20 19 16 15 14 14 14 15 16 15 15 14 14 13 12 12 11
10 16 19 21 19 27 33 35 40 41 39 37 39 39 40 41 38 35 32 30 28 25 24 24 22 19 18 17 17 13 12 12 13 15 15 15 13 14 13 12 11 9 8
10 15 19 22 24 26 32 40 41 37 38 31 31 35 36 37 37 34 31 29 26 23 22 21 20 18 17 15 14 12 11 12 12 14 15 15 14 13 12 11 10 8 8
11 10 20 22 25 25 21 26 28 31 38 37 36 34 37 37 35 33 31 26 24 22 21 20 19 17 15 13 12 12 12 11 10 13 13 15 16 15 14 12 11 9 8
10 12 18 24 24 27 25 27 27 23 29 36 36 35 30 33 33 33 30 26 24 21 19 17 17 15 16 14 12 11 12 12 11 14 13 14 15 15 15 14 11 9 7
11 14 16 22 28 28 23 24 27 21 25 29 29 29 32 26 29 30 28 27 25 21 19 17 15 15 15 14 12 11 12 13 14 15 14 14 14 15 16 17 14 12 11
13 16 18 21 25 31 27 26 28 24 26 33 32 32 31 34 34 31 27 25 23 21 20 19 17 17 16 16 12 10 13 16 18 19 18 17 17 17 17 17 17 16 14
15 16 18 23 27 27 28 29 22 26 27 30 30 30 30 31 30 28 26 26 23 21 21 22 21 20 17 18 9 4 1 8 21 23 23 21 21 20 22 21 20 19 18
17 17 18 21 28 26 31 25 15 22 25 24 25 30 26 27 27 26 25 23 20 22 24 24 25 25 20 20 20 7 2 5 2 10 26 27 24 24 24 24 23 23 23
14 19 19 20 25 29 35 30 23 24 22 22 31 33 28 25 25 24 24 19 17 24 26 26 27 28 27 23 22 21 14 5 3 2 6 16 26 25 27 25 23 22 23
20 22 24 22 24 27 35 30 29 22 26 30 29 28 29 26 24 22 19 18 25 27 28 29 29 31 33 30 26 14 24 12 9 3 2 3 6 16 26 25 22 20 18
18 20 24 27 28 29 34 35 34 33 29 30 30 30 30 29 29 26 25 29 29 28 30 31 32 35 35 34 34 31 24 11 12 8 2 5 9 11 15 13 14 14 14
Wind_Direction
164 168 176 175 174 157 153 156 156 155 154 151 145 150 145 140 140 137 134 132 127 123 120 119 116 114 112 110 107 106 107 103 100 98 95 92 89 86 85 84 86 89 81
163 174 178 180 178 165 155 160 159 156 154 150 145 148 146 144 144 140 136 133 127 124 122 121 119 115 116 114 114 114 114 114 112 104 100 95 92 92 89 88 86 84 89
177 176 182 179 177 175 167 157 159 158 155 151 149 150 149 147 145 142 136 131 130 128 128 122 118 116 115 113 114 116 118 117 113 110 104 99 97 95 93 92 90 86 85
191 182 186 180 179 174 165 157 155 153 152 152 151 150 150 149 147 140 136 132 131 128 126 123 121 118 118 115 114 113 112 118 117 114 108 104 102 99 97 91 88 87 86
190 184 180 178 173 170 169 160 152 147 148 150 152 153 152 151 147 145 139 137 134 131 133 130 129 126 122 116 117 115 116 120 119 115 112 109 105 102 100 97 94 91 88
199 195 184 178 169 170 170 166 162 159 157 155 153 152 151 149 146 146 141 138 136 134 134 130 132 132 123 117 114 116 117 118 116 112 109 109 106 105 102 101 97 94 91
217 214 228 197 169 170 168 162 163 160 160 158 152 149 150 147 147 149 143 142 140 141 139 137 135 133 125 118 113 115 118 117 114 112 111 108 106 105 105 102 100 98 95
212 225 254 206 190 175 175 170 166 159 161 161 154 154 153 147 149 150 148 147 148 140 137 143 141 135 127 120 116 117 118 116 115 114 113 109 108 106 104 104 102 100 97
194 193 237 224 208 193 195 193 169 161 160 160 157 155 155 152 151 151 149 153 144 137 134 144 143 137 129 123 119 118 117 116 114 118 116 112 111 109 108 107 103 102 99
192 162 181 209 225 214 204 200 180 168 162 164 160 157 151 154 157 154 153 148 143 132 137 141 142 136 131 125 122 117 116 114 120 120 118 116 114 112 112 110 108 106 103
177 185 182 214 223 202 194 214 187 181 166 161 163 157 151 155 157 154 149 148 145 140 136 141 142 138 135 129 126 118 121 123 124 120 119 120 118 116 113 113 112 109 106
174 191 200 192 193 206 203 203 177 166 163 171 163 155 154 157 156 151 146 148 146 137 136 139 143 144 137 138 134 132 126 124 122 122 125 126 125 122 119 117 115 114 110
186 193 190 188 196 193 233 204 180 172 169 173 158 157 157 157 156 151 144 145 144 142 138 138 141 147 139 142 140 138 128 127 126 131 132 131 128 128 126 123 121 117 116
184 185 195 182 180 128 88 199 183 160 169 173 168 160 160 159 158 157 150 148 148 147 141 138 142 143 142 146 145 142 138 133 133 136 136 137 137 134 132 132 130 124 118
177 182 187 175 161 129 118 113 145 145 159 166 167 167 167 161 163 162 155 153 151 149 147 146 141 141 145 149 152 147 148 148 145 146 146 148 148 145 144 142 134 130 125
175 171 178 172 164 139 128 131 132 148 154 174 176 169 171 167 169 163 160 162 158 155 154 154 144 142 150 154 153 154 161 160 159 161 162 161 163 162 159 155 147 141 143
184 160 162 169 160 150 138 143 150 159 163 180 172 174 172 174 173 167 169 169 166 159 161 155 143 143 148 155 158 166 174 175 175 178 179 175 178 180 174 170 173 164 163
191 159 145 161 153 155 150 152 153 162 176 178 176 183 179 179 179 174 178 171 171 168 171 161 148 152 158 162 168 175 180 189 192 192 191 192 191 189 192 192 190 192 189
177 154 150 152 159 150 151 158 161 170 183 179 179 177 187 186 182 182 183 175 180 177 180 169 160 169 171 171 178 188 195 205 204 203 202 200 203 203 206 215 221 216 208
172 168 165 159 168 166 163 166 172 179 180 176 183 184 181 194 191 191 188 186 186 186 191 187 178 183 190 184 186 202 212 217 218 220 218 214 214 212 214 220 224 226 224
169 166 173 170 164 171 169 167 171 181 181 180 187 192 197 193 195 194 192 192 194 198 205 201 193 200 197 198 193 215 228 230 232 232 231 226 224 224 222 225 231 233 231
162 175 172 177 176 169 166 167 167 182 181 183 188 185 195 196 195 194 198 203 203 204 213 215 211 210 212 204 186 170 273 251 243 238 235 235 236 233 231 230 233 236 237
164 178 181 182 179 174 172 169 164 169 177 176 178 173 202 201 198 196 202 205 207 218 221 225 223 224 219 211 209 186 129 229 233 236 235 239 238 239 241 237 240 242 243
176 192 190 189 184 182 178 181 191 182 178 178 181 195 201 200 200 205 209 215 225 229 231 234 232 231 230 218 216 225 232 198 181 277 252 249 240 240 246 240 244 251 254
190 192 196 192 194 192 189 192 196 195 191 197 201 209 210 209 207 216 223 230 233 235 239 240 238 236 235 232 220 212 226 226 224 185 246 230 233 235 244 244 245 249 250
195 194 198 202 194 193 194 199 201 205 202 204 214 221 223 227 226 232 238 238 239 243 244 245 246 242 240 237 239 235 224 211 205 200 178 208 215 231 226 228 233 242 250